This demonstration page uses our WeatherBlox Daily Observations layout. Learn more.

Left ArrowRight Arrow

39.51506, -84.39828

Hourly Observations for April 30, 2016

Temp ( °F °C ) Dew Point ( °F °C ) Humidity (%) Winds ( mph kmh ) Pressure ( in mb ) Visibility ( mi km ) Precip ( " mm )
12:15 am 00:15 Partly Cloudy 57 13.8 46 7.9 68 68 E 9 15 30.12 1020 10 16 N/A
12:35 am 00:35 Cloudy 55 12.7 44 6.8 68 68 ENE 9 15 30.12 1020 10 16 N/A
12:55 am 00:55 Cloudy 55 12.5 43 6.2 66 66 E 10 17 30.12 1020 10 16 N/A
1:15 am 01:15 Cloudy 55 12.5 43 6.1 65 65 E 13 20 30.12 1020 10 16 N/A
1:35 am 01:35 Mostly Cloudy 55 12.5 44 6.6 68 68 ENE 8 13 30.12 1020 10 16 N/A
1:55 am 01:55 Mostly Cloudy 55 12.5 44 6.6 68 68 ENE 9 15 30.09 1019 10 16 N/A
2:15 am 02:15 Cloudy 55 12.5 44 6.7 68 68 ENE 9 15 30.09 1019 10 16 N/A
2:35 am 02:35 Mostly Cloudy 55 12.5 44 6.4 67 67 ENE 13 20 30.06 1018 10 16 N/A
2:55 am 02:55 Partly Cloudy 55 12.5 43 6.3 66 66 ENE 9 15 30.06 1018 10 16 N/A
3:15 am 03:15 Mostly Cloudy 55 12.5 43 6.1 65 65 ENE 7 11 30.06 1018 10 16 N/A
3:35 am 03:35 Cloudy 55 12.5 42 5.7 64 64 E 5 7 30.06 1018 10 16 N/A
3:55 am 03:55 Cloudy 55 12.5 42 5.3 62 62 ESE 7 11 30.06 1018 10 16 N/A
4:15 am 04:15 Cloudy 55 12.5 41 5 61 61 E 6 9 30.06 1018 10 16 N/A
4:35 am 04:35 Cloudy 55 12.5 41 5 61 61 E 7 11 30.06 1018 10 16 N/A
4:55 am 04:55 Cloudy 55 12.5 40 4.7 59 59 ESE 5 7 30.09 1019 10 16 N/A
5:15 am 05:15 Cloudy 55 12.5 41 4.8 60 60 E 7 11 30.06 1018 10 16 N/A
5:35 am 05:35 Cloudy 55 12.5 41 5 61 61 ESE 5 7 30.06 1018 10 16 N/A
5:55 am 05:55 Cloudy 55 12.5 41 4.8 60 60 ESE 3 6 30.09 1019 10 16 N/A
6:15 am 06:15 Mostly Cloudy 55 12.5 41 5.1 61 61 E 3 6 30.06 1018 10 16 N/A
6:35 am 06:35 Cloudy 55 12.5 42 5.5 63 63 ENE 6 9 30.06 1018 10 16 N/A
6:55 am 06:55 Cloudy 55 12.5 42 5.7 64 64 undefined N/A 30.06 1018 10 16 N/A
7:15 am 07:15 Cloudy 55 12.5 42 5.6 63 63 ENE 10 17 30.06 1018 10 16 N/A
7:35 am 07:35 Cloudy 55 12.5 42 5.7 64 64 ENE 10 17 30.06 1018 10 16 N/A
7:55 am 07:55 Cloudy 55 12.5 43 6 65 65 ENE 7 11 30.06 1018 10 16 N/A
8:15 am 08:15 Cloudy 55 12.5 43 6.1 65 65 undefined N/A 30.06 1018 10 16 N/A
8:35 am 08:35 Cloudy 55 12.5 43 6.1 65 65 ENE 9 15 30.06 1018 10 16 N/A
8:55 am 08:55 Cloudy 55 12.5 43 6.3 66 66 ENE 8 13 30.03 1017 10 16 N/A
9:15 am 09:15 Cloudy 55 12.5 44 6.6 68 68 ENE 9 15 30.06 1018 10 16 N/A
9:35 am 09:35 Cloudy with Drizzle 55 12.5 45 7.2 70 70 E 7 11 30.06 1018 10 16 N/A
9:55 am 09:55 Cloudy with Drizzle 55 12.5 46 7.6 72 72 ENE 8 13 30.03 1017 10 16 N/A
10:15 am 10:15 Cloudy 55 12.5 46 7.6 72 72 E 6 9 30.03 1017 10 16 N/A
10:35 am 10:35 Cloudy with Light Rain 55 12.5 46 7.6 72 72 ENE 10 17 30.03 1017 10 16 N/A
10:55 am 10:55 Cloudy 55 12.5 46 7.6 72 72 N N/A 30.06 1018 10 16 N/A
11:15 am 11:15 Cloudy with Rain 55 12.5 47 8.2 75 75 E 5 7 30.06 1018 4 6 N/A
11:35 am 11:35 Cloudy with Light Rain 55 12.5 47 8.2 75 75 N N/A 30.09 1019 10 16 N/A
11:55 am 11:55 Cloudy with Rain 55 12.5 47 8.5 77 77 N N/A 30.09 1019 2 3 N/A
12:15 pm 12:15 Cloudy with Rain 55 12.5 48 8.9 79 79 E 6 9 30.09 1019 5 8 N/A
12:35 pm 12:35 Cloudy with Rain 55 12.5 48 9 79 79 E 6 9 30.06 1018 4 6 N/A
12:55 pm 12:55 Cloudy with Rain 55 12.5 48 9.1 80 80 E 6 9 30.06 1018 4 6 N/A
1:15 pm 13:15 Cloudy with Light Rain 55 12.5 48 9 79 79 E 7 11 30.03 1017 5 8 N/A
1:35 pm 13:35 Cloudy with Light Rain 55 12.5 48 9.1 80 80 ESE 5 7 30.03 1017 5 8 N/A
1:55 pm 13:55 Cloudy with Light Rain 56 13.1 49 9.5 79 79 E 6 9 30.03 1017 5 8 N/A
2:15 pm 14:15 Cloudy with Rain 57 13.8 50 10.2 79 79 E 5 7 30.03 1017 5 8 N/A
2:35 pm 14:35 Cloudy with Light Rain 57 13.8 50 10.2 79 79 E 8 13 30.00 1016 5 8 N/A
2:55 pm 14:55 Cloudy with Light Rain 57 13.8 51 10.5 81 81 E 5 7 30.00 1016 5 8 N/A
3:15 pm 15:15 Cloudy with Light Rain 57 13.8 51 10.3 80 80 ESE 7 11 29.97 1015 5 8 N/A
3:35 pm 15:35 Cloudy with Light Rain 58 14.2 51 10.6 79 79 ESE 5 7 29.94 1014 7 11 N/A
3:55 pm 15:55 Cloudy with Light Rain 60 15.3 53 11.5 78 78 SSE 7 11 29.91 1013 10 16 N/A
4:15 pm 16:15 Cloudy with Drizzle 60 15.3 53 11.5 78 78 undefined N/A 29.91 1013 10 16 N/A
4:35 pm 16:35 Cloudy 60 15.3 53 11.5 78 78 undefined N/A 29.91 1013 10 16 N/A
4:55 pm 16:55 Cloudy 60 15.3 52 11.3 77 77 undefined N/A 29.91 1013 10 16 N/A
5:15 pm 17:15 Cloudy 60 15.4 53 11.4 77 77 undefined N/A 29.91 1013 10 16 N/A
5:35 pm 17:35 Cloudy 60 15.4 53 11.4 77 77 undefined N/A 29.91 1013 10 16 N/A
5:55 pm 17:55 Cloudy with Rain 60 15.4 53 11.5 78 78 undefined N/A 29.91 1013 10 16 N/A
6:15 pm 18:15 Cloudy with Heavy Rain 60 15.3 53 11.7 79 79 undefined N/A 29.94 1014 3 4 N/A
6:35 pm 18:35 Cloudy with Light Rain 60 15.3 54 12 81 81 N N/A 29.91 1013 7 11 N/A
6:55 pm 18:55 Cloudy with Light Rain 60 15.3 54 12 81 81 ESE 3 6 29.91 1013 5 8 N/A
7:15 pm 19:15 Cloudy 60 15.3 54 12.1 81 81 ESE 5 7 29.91 1013 10 16 N/A
7:35 pm 19:35 Cloudy with Heavy Rain 60 15.3 54 12 81 81 undefined N/A 29.91 1013 3 5 N/A
8:15 pm 20:15 Cloudy with Rain 60 15.3 54 12.2 82 82 undefined N/A 29.91 1013 7 11 N/A
8:35 pm 20:35 Cloudy with Drizzle 60 15.3 54 12.2 82 82 undefined N/A 29.88 1012 10 16 N/A
8:55 pm 20:55 Cloudy 60 15.3 54 12 81 81 undefined N/A 29.88 1012 10 16 N/A
9:15 pm 21:15 Cloudy 60 15.3 54 12 81 81 undefined N/A 29.88 1012 10 16 N/A
9:35 pm 21:35 Cloudy 60 15.3 54 12 81 81 undefined N/A 29.88 1012 10 16 N/A
9:50 pm 21:50 Cloudy with Drizzle 60 15.3 54 12.2 82 82 undefined N/A 29.88 1012 7 11 N/A
10:15 pm 22:15 Cloudy with Light Rain 60 15.3 54 12.2 82 82 undefined N/A 29.88 1012 7 11 N/A
10:35 pm 22:35 Cloudy with Drizzle 60 15.3 54 12.2 82 82 undefined N/A 29.88 1012 10 16 N/A
10:55 pm 22:55 Cloudy with Light Rain 60 15.3 54 12.2 82 82 undefined N/A 29.88 1012 10 16 N/A
11:15 pm 23:15 Cloudy with Light Rain 60 15.5 54 12.3 81 81 undefined N/A 29.88 1012 10 16 N/A
11:35 pm 23:35 Cloudy 61 16 55 12.8 81 81 undefined N/A 29.88 1012 7 11 N/A
11:55 pm 23:55 Cloudy 61 16 55 12.7 81 81 undefined N/A 29.88 1012 10 16 N/A

Powered by AerisWeather